STARLINK-32856, 62819

Orbit data source: Space-Track

STARLINK-32856, 62819 is a payload satellite owned by SpaceX/Seattle (US) in LEO that was launched on Fri, 24 Jan 2025 UTC via an FALCON 9 launch vehicle from the Air Force Western Test Range (AFWTR). Payload-class satellites include a variety of spacecraft equipped with specific instruments for various scientific and technological missions. These include communications satellites like Starlink; space stations such as the ISS; scientific satellites like the Hubble; Earth observation satellites from companies like Planet Labs, Umbra, and HawkEye 360; GPS; miniature CubeSats for education and research; and military/defense satellites.

Loading next visibility...
Identifier
62819, 2025-018P
Orbit
LEO
Last TLE update
8 hours ago
Origin
Manufacturer
SpaceX/Seattle
Mission
Operational Commercial Communications
Bus & Motor
STARLINK V2M, Unknown motor
Mass
730 kg wet, ~700 kg dry
Launch date (UTC)
2025-01-24 (6 months ago)
Launch vehicle
FALCON 9
Launch site
Air Force Western Test Range (AFWTR)
Object type
Payload
Rocket body
Debris
Shape & HBR
Box + 2 Pan, 29 m
Radar Cross Section
33.884 m², Large (>1 m²)

Expand to show TLE details & history

TLE from 8 hours ago
0 STARLINK-32856
1 62819U 25018P   25194.14793686  .00022570  00000-0  77163-3 0  9990
2 62819  53.1592 342.2362 0001160  81.7549 278.3583 15.30209272 27351
Epoch: 2025-07-13T03:33Z
TLE epoch observation values (Epoch: 2025-07-13T03:33:01.744Z)
Latitude
-0.00006°
Longitude
-2.29643°
Altitude
475.972 km
Speed
7.629 km/s
True Right ascension
22h 48m 56s
True Declination
0° 00' 00"
Sunlit
Object was in full shadow at epoch
Visualization orbit readout
Latitude
47.28045°
Longitude
122.29956°
Altitude
479.659 km
Speed
7.632 km/s
Apparent Right ascension
09h 47m 45s
Apparent Declination
7° 14' 23"
Sunlit
Object is in daylight
Visualization observer readout
Local Sidereal Time
00:18:57
Azimuth
45.396° ENE
Elevation
-31.356°
Doppler factor
1
Orbital elements
Apogee altitude
476.239 km
Perigee altitude
474.649 km
Semi-major axis
6,853.581 km
Eccentricity
0.00012
Inclination
53.1592°
RAAN
342.2362°
Arg. of periapsis
81.7549°
True anomaly
Unknown
Mean anomaly
278.3583°
Eccentric anomaly
Unknown
Mean motion
3.82531 °/min
Orbital period
94.11 mins
BSTAR
0.00077163
Loading maneuver chart data...
Loading SW <> Apogee altitude chart data...
Loading historical data...
Loading historical data...
Loading historical data...
Loading historical data...
Loading historical data...
Loading historical data...
Loading historical data...

STARLINK-32856 Visibility forecast

Observer location: undefined°, undefined°

Span
Click to sort rows by Start time (UTC) header in descending order
Start Az.
Max El. time (UTC)
Max El. Az.
Max El.
End time (UTC)
End Az.
6 mins2025-07-13 13:08:57.219Z244.981° WSW2025-07-13 13:11:57.219Z312.768° NW39.85°2025-07-13 13:14:57.219Z40.378° NE
4 mins2025-07-13 18:06:57.219Z344.685° N2025-07-13 18:08:57.219Z26.074° NE19.762°2025-07-13 18:10:57.219Z66.395° ENE
5 mins2025-07-13 19:44:57.219Z301.152° NW2025-07-13 19:46:57.219Z242.52° WSW42.625°2025-07-13 19:49:57.219Z141.513° SSE
|